This is the latest recevied weather packets stored in our database for station/object PP5FMM-13. If no packets are shown the sender has not sent any weather packets the latest 10 day(s).
| Time | Temp. | Humidity | Pressure | Rain* | Wind** | Luminosity | Snow |
|---|---|---|---|---|---|---|---|
| 1777379427 | 28.33° C | 47% | 1019.6 hPa | - | - | - | - |
| 1777379127 | 27.78° C | 46% | 1019.7 hPa | - | - | - | - |
| 1777378827 | 27.22° C | 48% | 1019.4 hPa | - | - | - | - |
| 1777378527 | 27.22° C | 48% | 1019.4 hPa | - | - | - | - |
| 1777378227 | 26.11° C | 50% | 1019.4 hPa | - | - | - | - |
| 1777377927 | 25.56° C | 50% | 1019.7 hPa | - | - | - | - |
| 1777377627 | 25.56° C | 50% | 1019.6 hPa | - | - | - | - |
| 1777377327 | 25.56° C | 48% | 1019.5 hPa | - | - | - | - |
| 1777377027 | 25.56° C | 47% | 1019.6 hPa | - | - | - | - |
| 1777376727 | 25.56° C | 49% | 1019.3 hPa | - | - | - | - |
| 1777376427 | 25° C | 51% | 1019.3 hPa | - | - | - | - |
| 1777376127 | 24.44° C | 52% | 1019.3 hPa | - | - | - | - |
| 1777375827 | 24.44° C | 51% | 1019.2 hPa | - | - | - | - |
| 1777375527 | 24.44° C | 51% | 1019 hPa | - | - | - | - |
| 1777375227 | 24.44° C | 53% | 1018.9 hPa | - | - | - | - |
| 1777374927 | 24.44° C | 49% | 1019 hPa | - | - | - | - |
| 1777374627 | 24.44° C | 52% | 1018.9 hPa | - | - | - | - |
| 1777374327 | 24.44° C | 54% | 1018.9 hPa | - | - | - | - |
| 1777374027 | 24.44° C | 54% | 1018.9 hPa | - | - | - | - |
| 1777373727 | 24.44° C | 59% | 1018.9 hPa | - | - | - | - |
| 1777373427 | 24.44° C | 62% | 1018.8 hPa | - | - | - | - |
| 1777373127 | 24.44° C | 61% | 1018.8 hPa | - | - | - | - |
| 1777372827 | 24.44° C | 61% | 1018.6 hPa | - | - | - | - |
| 1777372527 | 24.44° C | 62% | 1018.6 hPa | - | - | - | - |
| 1777372227 | 24.44° C | 62% | 1018.5 hPa | - | - | - | - |
* Rain since midnight (hover to see other rain measurements)
** Current wind speed in m/s (hover to see current wind gust speed)